Regional Weather Roundup
Issued by NWS Spokane, WA

Home | Current Version | Previous Version | Text Only | Print | Product List | Glossary On
Versions: 1 2 3 4 5 6 7 8 9 10 11 12 13 14 15 16 17 18 19 20 21 22 23 24 25 26 27 28 29 30 31 32 33 34 35 36 37 38 39 40 41 42 43 44 45 46 47 48 49 50
000
NZUS01 KOTX 010010
RWROTX
EASTERN WASHINGTON/NORTHERN IDAHO ROUNDUP
NATIONAL WEATHER SERVICE, SPOKANE WA
500 PM PDT TUE SEP 30 2014

Note: "fair" indicated few or no clouds below 12,000 feet with no
significant weather and/or obstructions to visibility.

...NORTHEAST WASHINGTON AND NORTHERN IDAHO PANHANDLE...

CITY           SKY/WX    TMP DP  RH WIND       PRES   REMARKS
SPOKANE INTL   PTSUNNY   59  38  45 W10G17    29.91R
SPOKANE DOWNTO CLOUDY    58  48  69 CALM      29.91F
COEUR D ALENE  PTSUNNY   57  43  58 SW13      29.91R
DEER PARK      CLOUDY    58  44  60 MISG      29.92R
SANDPOINT      PTSUNNY   54  45  71 CALM      29.89S

...SOUTHEAST WASHINGTON AND SOUTHERN IDAHO PANHANDLE...

CITY           SKY/WX    TMP DP  RH WIND       PRES   REMARKS
PULLMAN/MOSCOW CLOUDY    61  36  39 W17G25    29.96S
LEWISTON       CLOUDY    65  38  36 W14       29.95S
LOWELL           N/A     54  51  90 N3        29.99R

...COLUMBIA BASIN...

CITY           SKY/WX    TMP DP  RH WIND       PRES   REMARKS
EPHRATA        SUNNY     69  32  25 W24G31    29.92S
MOSES LAKE     SUNNY     70  32  24 W23G30    29.93R
HERMISTON      MOSUNNY   70  41  34 W17G24    29.97S
PENDLETON      LGT RAIN  63  41  44 N9G16     29.98F

...EAST SLOPES CASCADES...

CITY           SKY/WX    TMP DP  RH WIND       PRES   REMARKS
THE DALLES     SUNNY     68  42  38 W23G37    30.03S
YAKIMA         MOSUNNY   66  37  34 N12       29.99S
WENATCHEE      SUNNY     67  34  29 NW25G32   29.95R
OMAK           PTSUNNY   64  39  39 N20       29.94R

...SOUTHERN BRITISH COLUMBIA...

CITY           SKY/WX    TMP DP  RH WIND       PRES   REMARKS
CASTLEGAR      PTSUNNY   61  39  44 N8        29.89R
CRANBROOK      MOSUNNY   57  37  47 N7        29.83R

...WESTERN MONTANA...

CITY           SKY/WX    TMP DP  RH WIND       PRES   REMARKS
MISSOULA       MOSUNNY   52  39  61 N9        29.94S

...NEIGHBORING CITIES...

CITY           SKY/WX    TMP DP  RH WIND       PRES   REMARKS
SEATTLE        PTSUNNY   67  48  50 N8        30.10S
CALGARY        MOSUNNY   52  39  62 W14       29.81R



USA.gov is the U.S. government's official web portal to all federal, state and local government web resources and services.